TimeCDT,TemperatureF,Dew PointF,Humidity,Sea Level PressureIn,VisibilityMPH,Wind Direction,Wind SpeedMPH,Gust SpeedMPH,PrecipitationIn,Events,Conditions,WindDirDegrees,DateUTC
12:53 AM,79.0,-9999,N/A,29.97,10.0,ESE,11.5,-,N/A,,Unknown,120,2013-08-22 05:53:00
1:53 AM,77.0,52.0,42,29.98,10.0,SE,6.9,-,N/A,,Scattered Clouds,140,2013-08-22 06:53:00
2:53 AM,77.0,57.9,52,29.97,10.0,South,10.4,-,N/A,,Clear,180,2013-08-22 07:53:00
3:53 AM,75.0,-9999,N/A,29.97,10.0,SSE,5.8,-,N/A,,Clear,150,2013-08-22 08:53:00
4:53 AM,73.0,-9999,N/A,29.96,10.0,SE,4.6,-,N/A,,Clear,140,2013-08-22 09:53:00
5:53 AM,72.0,61.0,68,29.97,10.0,SE,5.8,-,N/A,,Unknown,130,2013-08-22 10:53:00
6:53 AM,71.1,61.0,70,29.99,10.0,SE,6.9,-,N/A,,Clear,140,2013-08-22 11:53:00
7:53 AM,72.0,63.0,73,30.01,10.0,SE,6.9,-,N/A,,Clear,130,2013-08-22 12:53:00
8:53 AM,73.9,64.0,71,30.02,10.0,SSE,8.1,-,N/A,,Clear,160,2013-08-22 13:53:00
9:53 AM,77.0,64.0,64,30.03,10.0,South,10.4,-,N/A,,Clear,170,2013-08-22 14:53:00
10:53 AM,80.1,64.0,58,30.02,10.0,SSE,8.1,-,N/A,,Clear,160,2013-08-22 15:53:00
11:53 AM,84.0,62.1,47,30.02,10.0,SSE,13.8,18.4,N/A,,Clear,160,2013-08-22 16:53:00
12:53 PM,88.0,57.9,36,29.99,10.0,SE,12.7,-,N/A,,Partly Cloudy,140,2013-08-22 17:53:00
1:53 PM,89.1,57.0,34,29.97,10.0,South,8.1,20.7,N/A,,Partly Cloudy,180,2013-08-22 18:53:00
2:53 PM,91.0,55.0,29,29.94,10.0,South,11.5,23.0,N/A,,Partly Cloudy,170,2013-08-22 19:53:00
3:53 PM,93.0,55.0,28,29.91,10.0,SSE,13.8,23.0,N/A,,Scattered Clouds,160,2013-08-22 20:53:00
4:53 PM,93.0,53.1,26,29.89,10.0,SSE,10.4,18.4,N/A,,Scattered Clouds,150,2013-08-22 21:53:00
5:53 PM,91.9,53.1,27,29.88,10.0,SSW,8.1,20.7,N/A,,Partly Cloudy,200,2013-08-22 22:53:00
6:53 PM,91.0,53.1,27,29.87,10.0,SSE,13.8,-,N/A,,Partly Cloudy,150,2013-08-22 23:53:00
7:53 PM,90.0,55.0,30,29.88,10.0,SSE,15.0,20.7,N/A,,Mostly Cloudy,160,2013-08-23 00:53:00
8:12 PM,89.6,55.4,31,30.03,10.0,SE,15.0,-,N/A,Thunderstorm,Thunderstorm,140,2013-08-23 01:12:00
8:53 PM,88.0,54.0,31,29.90,10.0,South,13.8,-,N/A,,Clear,170,2013-08-23 01:53:00
9:53 PM,86.0,53.1,32,29.92,10.0,South,8.1,-,N/A,,Clear,170,2013-08-23 02:53:00
10:53 PM,84.0,57.9,41,29.94,10.0,SSE,15.0,-,N/A,,Clear,150,2013-08-23 03:53:00
11:53 PM,82.9,60.1,46,29.95,10.0,SSE,12.7,-,N/A,,Clear,160,2013-08-23 04:53:00